Wind_Speed
34 34 34 34 34 34 33 33 33 30 30 28 28 34 37 36 38 39 38 39 37 34 34 34 33 31 30 27 25 22 23 22 19 17 16 20 22 21 23 21 23 25 21 19 13 11 10 10 13 11 7 6 3 3 1 2 2 1 2 3 4 2 1 2 3 3 4 5 5 0 5 7 4 4 2 2 4 1 3 4 2 3 3 1 2 1 12 19
34 35 35 35 35 36 34 34 35 31 29 28 27 31 37 36 36 39 40 40 39 36 35 35 34 32 31 29 25 23 24 21 16 15 17 21 24 22 22 22 24 24 21 19 14 11 11 7 11 11 6 3 2 4 1 2 3 1 1 4 2 2 3 4 5 5 4 6 7 3 3 6 3 4 5 4 5 5 5 6 4 5 6 4 2 6 16 20
35 36 35 35 35 36 35 35 35 33 29 27 26 29 36 37 36 40 42 42 40 38 37 36 35 33 33 30 26 25 21 14 10 14 21 23 23 22 23 23 23 23 20 18 16 13 15 15 17 13 4 2 1 3 1 3 2 1 1 4 2 3 2 3 3 5 3 4 7 5 0 4 4 2 4 5 4 6 9 7 7 9 10 8 6 11 18 20
38 37 36 37 36 35 35 35 36 37 33 26 24 27 33 38 40 41 42 43 41 38 37 37 36 34 34 31 27 25 16 7 10 16 23 24 23 23 25 24 22 22 20 17 16 15 19 20 16 10 4 2 1 3 1 2 1 1 1 1 5 1 0 4 3 4 2 2 6 5 1 4 3 2 4 5 5 6 10 9 10 11 11 12 10 14 19 21
40 39 38 38 37 36 34 36 38 39 38 30 26 25 28 35 39 39 40 42 42 40 39 39 39 36 35 33 27 23 14 5 10 20 27 25 24 24 27 27 23 22 19 17 16 18 21 17 10 4 3 3 1 1 0 1 1 2 1 3 5 1 1 3 3 2 1 2 4 4 3 3 1 4 7 8 9 5 3 4 8 9 10 14 13 16 19 20
42 40 39 39 37 35 34 35 37 40 41 37 30 25 26 31 34 35 37 42 43 41 40 40 41 38 36 33 28 23 14 5 7 22 31 26 26 26 27 26 24 23 19 17 19 18 16 14 10 5 4 4 3 3 1 1 1 1 2 2 3 2 2 4 4 1 1 2 4 3 3 3 2 6 5 10 14 3 5 3 3 4 9 15 16 18 19 20
41 40 40 40 37 35 33 34 38 41 42 40 35 29 26 27 31 34 36 42 45 43 41 40 41 40 35 32 26 19 14 7 4 21 33 29 29 28 27 25 25 25 20 19 19 14 12 13 13 8 7 5 3 4 2 1 1 2 4 2 2 1 3 4 4 2 0 3 4 3 3 4 7 5 0 9 15 3 4 3 2 2 10 16 16 17 19 21
39 40 39 38 36 35 33 34 38 41 41 39 37 33 27 23 29 34 35 40 46 45 42 41 41 40 38 31 21 12 13 9 3 19 32 30 29 27 26 25 25 25 22 21 17 10 9 12 13 9 8 6 5 6 3 2 1 3 4 2 1 1 3 3 4 2 0 3 2 2 6 6 5 3 2 10 13 5 2 2 3 5 10 14 14 16 18 20
35 37 37 36 35 33 32 34 38 41 40 38 37 35 31 25 27 31 33 37 45 48 44 43 42 41 41 29 16 10 15 13 5 19 32 28 28 28 26 26 26 26 22 21 18 14 9 8 10 8 6 5 5 5 3 4 2 2 1 1 2 4 5 4 5 2 2 1 1 4 8 5 1 2 6 11 7 3 4 3 4 8 10 11 12 15 17 18
34 35 35 33 32 29 29 32 37 40 40 38 36 35 35 31 27 28 30 33 41 47 45 46 43 43 39 24 15 10 16 23 11 21 33 28 29 29 27 27 27 27 20 16 16 14 9 6 8 6 5 5 3 3 1 4 2 2 3 4 5 6 6 2 5 4 2 2 4 6 8 2 1 2 5 3 2 1 5 5 5 8 10 11 11 12 16 17
33 34 32 29 28 27 27 30 35 38 40 37 32 33 34 31 28 26 25 29 39 46 45 46 45 45 36 21 16 7 15 28 16 24 34 28 31 30 29 28 26 26 20 13 14 14 8 9 13 7 4 5 5 3 1 3 4 4 2 5 6 5 7 5 6 4 2 3 4 6 8 1 3 4 5 1 3 2 6 6 5 8 8 9 11 11 13 15
31 31 29 26 25 26 26 28 32 36 40 36 29 31 32 29 26 23 22 26 40 48 46 48 46 42 31 15 14 7 18 30 20 28 35 29 31 29 27 26 23 26 23 16 14 15 12 16 16 6 4 8 7 4 1 3 4 3 2 4 7 8 10 9 5 1 1 2 2 3 8 6 8 8 4 3 2 3 5 6 5 7 6 7 9 9 10 13
31 29 26 24 23 25 25 27 30 34 39 36 28 29 31 30 25 21 20 24 40 53 50 51 49 40 25 8 8 11 20 29 24 30 36 33 32 27 25 22 19 24 25 20 15 15 18 20 15 6 5 8 5 3 6 5 1 2 4 1 5 8 10 4 2 1 2 1 2 2 7 7 9 9 4 4 3 5 5 7 6 5 5 5 7 8 9 12
30 28 24 23 22 23 26 28 29 31 36 35 31 31 31 31 29 21 16 19 36 55 53 52 51 36 17 4 7 14 20 27 28 33 37 35 32 24 22 22 19 21 21 20 20 19 20 19 16 10 3 2 6 6 7 5 0 3 3 1 3 6 4 1 2 2 4 3 4 4 8 8 5 5 5 4 4 6 6 8 7 6 5 5 7 8 9 12
28 26 23 22 21 21 24 27 29 30 33 32 29 32 32 32 33 25 16 12 23 50 58 51 45 28 9 2 8 18 23 24 28 35 37 35 32 21 18 22 20 20 20 19 22 21 20 19 14 9 2 2 8 8 5 4 2 3 3 4 4 5 2 3 2 2 4 1 6 6 6 7 6 2 2 3 4 6 8 8 7 6 6 6 7 8 8 9
26 24 23 20 20 20 21 24 27 29 30 26 23 29 32 32 33 28 23 16 17 39 53 38 35 26 6 5 14 21 22 19 26 36 34 34 34 24 22 24 18 19 20 18 22 20 16 13 6 4 5 5 8 7 5 3 3 2 4 5 4 5 2 3 1 2 3 1 5 9 6 4 3 0 2 2 5 6 8 8 6 6 6 6 6 7 7 7
24 22 21 19 19 19 20 21 24 27 27 24 22 25 30 29 29 26 26 22 21 33 49 35 36 26 4 9 19 19 17 15 26 34 30 31 34 32 27 19 14 18 18 16 17 13 7 5 2 2 4 5 7 7 5 6 6 3 2 5 4 4 2 1 2 3 3 1 4 9 9 7 7 4 1 3 5 7 8 8 7 6 6 6 6 6 7 7
25 23 21 19 18 17 20 20 20 24 25 25 22 22 26 25 23 20 18 16 15 24 38 31 32 18 4 15 19 20 23 23 28 29 26 26 31 34 26 15 14 18 15 9 6 4 2 2 1 3 4 6 9 9 7 7 8 6 5 6 4 3 2 2 3 2 4 3 5 8 10 12 13 13 7 4 5 7 8 8 7 7 7 6 6 7 8 8
26 24 21 19 17 15 17 20 19 21 22 24 21 18 22 19 15 12 12 9 7 10 10 11 21 9 5 19 18 20 28 31 29 23 23 26 28 29 23 19 17 15 12 7 3 2 2 3 2 5 8 10 11 11 8 7 10 10 9 7 4 4 3 2 3 3 5 5 7 9 11 12 13 16 14 4 6 6 6 6 6 6 6 6 7 7 8 10
24 23 21 18 17 15 15 18 18 19 21 23 21 17 16 11 8 7 7 6 9 10 7 1 17 5 4 17 21 26 28 29 26 19 24 29 28 24 16 15 12 7 10 11 9 5 4 6 7 8 11 12 12 11 8 6 7 8 8 7 4 5 4 3 4 2 1 5 7 7 10 13 13 16 15 4 5 6 7 8 8 7 7 7 8 9 10 11
21 22 21 18 17 15 14 16 17 18 21 23 21 11 7 10 9 7 9 6 12 15 11 6 10 3 8 20 26 30 21 20 20 19 29 31 27 22 10 11 12 8 9 10 10 5 3 10 11 11 13 13 13 11 8 5 5 6 7 6 5 5 4 4 4 3 2 4 7 7 10 13 12 14 15 5 6 9 10 10 10 10 9 7 9 11 10 9
20 20 20 18 17 15 14 15 17 18 18 21 16 1 1 13 10 6 12 6 8 11 10 7 8 5 11 20 29 32 15 12 18 16 27 29 23 17 10 12 13 11 10 9 8 6 8 13 14 14 14 13 10 9 8 6 5 6 6 4 4 4 3 4 5 3 3 4 6 8 10 13 13 13 15 11 9 11 12 12 12 10 9 8 9 10 9 8
19 19 19 17 17 15 14 15 16 17 15 14 10 1 2 13 12 11 15 4 4 3 4 8 8 3 11 14 29 36 15 12 18 16 26 26 17 16 15 15 13 13 15 12 9 9 8 10 14 15 14 13 10 9 9 6 4 4 5 6 5 4 5 5 4 4 3 3 5 8 9 12 13 12 15 14 12 12 11 11 11 8 9 10 8 7 8 10
18 18 17 16 16 15 13 14 15 16 14 10 10 6 5 15 21 20 13 1 2 1 1 8 10 8 12 14 31 32 15 14 15 18 27 22 15 14 15 17 15 14 14 17 15 10 5 6 13 15 15 16 12 11 12 6 3 4 5 8 5 6 8 6 1 1 4 3 2 5 8 10 12 13 15 11 8 10 9 9 9 9 10 9 5 6 9 11
17 17 16 15 15 14 12 12 11 13 13 7 8 9 6 15 23 21 11 3 2 3 1 5 8 12 12 15 28 20 13 12 7 16 25 20 17 13 11 12 11 15 19 21 18 9 5 10 15 15 14 16 13 12 13 9 6 5 5 8 8 9 10 5 1 2 5 5 3 2 7 8 7 11 13 9 6 8 8 9 12 11 10 8 7 9 11 10
16 15 15 15 13 14 11 7 8 12 11 4 7 10 9 14 18 17 9 2 3 2 4 5 7 17 16 12 18 13 12 8 1 16 23 18 17 11 9 7 2 13 21 17 12 4 4 9 13 16 14 14 11 8 13 13 8 5 6 8 9 10 10 8 4 2 5 4 0 1 6 6 4 7 9 7 8 9 8 9 12 11 9 9 10 10 10 10
15 14 14 13 14 14 8 4 10 13 7 3 8 11 10 16 21 19 8 2 4 3 5 4 3 15 17 13 17 13 12 9 6 15 19 15 15 6 8 11 4 10 13 9 7 3 8 12 12 15 15 12 10 8 12 14 9 5 8 12 12 10 11 10 6 4 3 4 4 3 3 6 8 6 4 4 8 11 10 10 10 10 10 10 11 11 11 11
14 14 14 13 14 13 8 9 13 9 5 7 13 12 10 17 23 17 6 4 4 3 5 5 2 8 11 14 19 10 10 16 12 15 15 12 10 2 8 16 13 15 13 10 9 3 10 16 15 15 12 11 12 10 12 16 9 2 7 12 11 9 9 6 4 3 1 3 7 5 4 5 9 5 3 3 10 15 15 12 10 10 11 11 12 12 12 12
13 14 14 13 13 12 10 12 11 7 8 12 14 15 14 17 15 7 2 4 2 3 4 5 3 6 8 13 15 8 10 10 5 9 9 6 3 1 6 14 17 20 10 4 6 4 6 10 14 16 11 11 12 11 15 16 7 3 8 8 5 5 3 2 2 2 1 4 8 6 8 6 10 7 4 4 9 14 14 10 9 9 10 10 11 10 11 10
12 12 13 14 11 10 10 8 7 9 12 15 17 20 21 15 6 3 4 4 2 2 3 5 6 8 12 14 10 12 15 6 5 11 5 1 2 3 4 6 10 15 6 5 6 4 3 3 6 8 5 6 9 9 11 11 7 10 10 9 7 4 2 2 1 1 2 7 5 5 9 6 8 8 7 7 6 9 11 10 9 8 8 9 9 8 9 9
9 9 11 13 9 10 9 5 8 10 10 18 25 24 17 7 2 4 5 1 2 3 3 6 7 7 15 18 10 13 16 8 12 15 6 3 4 3 7 5 4 5 5 6 6 3 5 5 4 2 0 7 13 8 4 5 9 10 8 8 8 4 2 2 1 1 6 5 1 3 8 10 10 6 5 7 5 6 10 12 13 13 10 8 8 8 8 8
7 7 9 10 9 10 9 6 14 13 5 16 24 15 6 3 4 4 2 0 2 5 5 6 7 8 18 19 12 16 16 10 13 16 12 11 7 9 13 9 7 6 5 8 6 5 6 4 4 3 1 7 14 9 4 4 6 5 7 9 6 3 3 4 3 3 7 4 1 2 4 9 12 9 9 10 6 6 10 10 12 12 10 8 7 7 6 5
7 7 8 9 10 11 10 8 12 15 9 13 14 6 3 5 5 4 3 1 2 3 3 7 9 10 18 17 11 14 14 12 16 14 13 15 12 12 10 10 14 8 6 10 8 7 5 1 4 6 3 7 12 11 6 5 5 5 8 8 5 5 5 6 5 3 5 3 2 1 2 6 9 6 10 13 10 9 9 8 9 7 7 6 2 2 2 3
7 7 7 9 10 11 13 10 8 14 16 13 7 5 7 7 3 5 6 2 2 4 2 6 10 10 16 15 11 14 10 9 17 15 13 14 12 11 7 8 14 6 7 10 4 6 7 1 7 9 5 8 11 9 9 8 6 6 5 4 4 6 5 5 5 5 3 1 2 3 2 6 4 2 3 7 7 6 4 4 6 7 8 7 3 3 4 5
6 5 5 7 9 11 16 12 8 15 18 9 2 4 8 7 3 4 6 3 3 4 3 6 11 9 10 9 10 15 5 5 18 15 10 12 11 12 11 11 16 10 10 11 4 7 7 2 7 7 4 11 13 9 12 13 7 4 1 1 3 3 2 1 1 2 1 1 3 5 4 5 2 6 8 6 4 3 4 4 5 8 8 7 6 6 6 6
7 5 3 5 7 11 17 16 13 16 14 6 2 4 4 4 1 1 4 5 5 8 9 8 7 6 6 3 7 11 0 2 20 16 8 12 11 12 12 10 15 15 12 10 5 7 7 3 5 4 4 12 11 10 15 12 7 4 3 4 2 1 2 1 1 2 1 4 4 5 6 6 4 9 11 10 8 5 4 6 7 9 8 6 7 7 6 5
7 4 0 3 7 12 17 18 17 15 8 4 5 5 3 2 1 0 1 3 5 8 10 9 5 3 5 3 4 8 5 5 15 12 8 12 10 13 13 8 13 17 14 10 4 4 7 6 2 1 8 7 1 6 12 5 4 6 6 6 4 2 2 2 3 1 3 7 4 4 8 6 4 6 3 7 12 9 7 7 7 7 7 7 8 8 6 4
5 3 3 6 10 12 18 21 19 12 4 3 7 7 3 2 3 2 2 0 6 6 5 6 4 2 6 6 3 9 12 10 10 9 9 8 6 13 17 11 13 16 12 9 5 5 8 8 2 1 6 5 2 5 8 3 1 2 4 8 5 2 4 4 4 3 4 7 5 4 6 6 8 8 2 4 8 9 10 8 5 7 7 7 8 7 5 3
3 2 3 6 10 14 22 24 17 8 4 5 7 7 3 3 5 4 2 2 5 6 6 5 2 2 5 6 6 10 14 14 12 10 10 8 6 14 19 11 12 17 10 4 5 8 6 6 4 2 1 5 4 5 8 6 2 1 3 8 3 2 3 4 3 1 3 6 6 3 2 5 7 8 8 10 8 8 10 7 7 9 6 3 5 6 4 3
3 1 2 3 11 19 27 23 11 6 6 6 6 5 4 4 5 6 2 2 3 4 6 5 2 4 4 3 5 9 11 14 16 12 11 9 6 13 18 11 13 17 9 3 5 7 3 2 6 4 1 6 7 6 9 12 9 5 7 8 5 2 1 1 3 2 3 5 5 5 5 5 3 4 10 14 12 13 11 7 7 5 2 2 4 4 4 4
3 1 1 6 17 25 25 15 6 7 6 6 7 5 3 3 5 7 6 5 3 2 1 3 3 4 5 5 6 8 8 11 14 10 8 10 6 7 14 14 16 18 11 7 8 6 2 4 8 8 6 8 5 1 2 8 10 9 8 9 10 8 5 4 6 5 3 4 3 3 7 6 3 3 6 10 11 10 6 4 4 2 3 5 4 4 4 4
2 1 3 13 25 29 20 8 6 7 5 6 8 6 4 4 5 8 8 7 4 1 3 3 4 3 5 7 8 10 9 9 14 11 7 12 10 3 11 18 18 17 11 8 7 2 2 5 8 9 7 4 1 3 3 1 6 7 6 8 10 9 8 8 6 4 4 4 1 1 6 5 4 4 5 7 6 3 3 3 5 4 5 5 4 4 5 5
2 2 6 21 33 27 13 6 7 6 5 6 7 8 6 5 5 6 7 7 6 2 1 4 5 5 6 6 8 11 11 9 12 9 4 10 8 1 11 22 21 17 11 8 8 4 3 6 7 8 5 2 3 2 2 3 2 7 8 8 8 10 10 4 1 1 4 5 4 2 7 6 4 6 4 3 1 1 3 4 5 5 4 4 5 6 5 5
3 2 4 22 38 26 9 7 9 9 9 8 7 8 6 4 6 7 8 9 8 5 2 4 6 6 5 6 9 13 12 7 6 3 1 6 4 1 14 24 22 17 8 6 10 6 3 6 7 9 7 4 3 3 4 4 6 8 8 6 7 9 6 2 1 1 3 7 8 6 9 9 2 4 2 1 1 4 4 4 5 6 4 3 4 4 4 5
3 3 2 14 27 19 7 7 9 10 13 13 11 11 9 5 5 7 9 9 8 7 5 4 4 4 4 6 9 11 8 3 4 4 2 4 2 1 15 25 23 15 4 6 10 5 4 7 7 10 10 9 10 7 6 7 6 4 5 8 11 11 11 7 3 4 6 9 11 9 11 7 3 4 2 3 4 6 4 4 4 5 4 4 4 3 3 3
2 4 3 6 10 9 7 7 8 8 12 13 10 11 12 8 4 7 10 9 8 7 6 5 3 1 5 9 10 10 5 3 2 6 5 7 3 2 13 22 20 13 7 11 12 5 3 5 6 10 12 10 9 6 8 12 10 9 13 16 16 16 16 11 4 8 10 7 8 12 14 7 2 5 3 3 4 4 1 2 2 2 3 4 3 3 4 3
3 4 5 6 4 6 7 7 9 10 11 13 9 9 15 13 6 6 9 8 7 7 4 6 7 5 7 13 12 10 6 3 6 8 5 6 5 2 10 18 16 14 12 13 11 5 4 5 10 13 9 2 3 6 11 16 16 18 20 20 17 15 16 12 11 16 11 4 7 14 14 15 12 8 6 4 4 2 1 3 2 1 2 2 3 5 5 4
3 2 4 6 3 5 8 10 14 15 15 14 9 9 16 17 11 9 7 4 6 7 3 5 12 13 13 15 13 9 9 6 7 9 5 5 7 7 10 10 9 13 13 10 8 5 5 7 11 11 4 5 5 8 12 13 10 11 15 17 17 18 18 17 20 22 13 8 13 11 9 16 19 11 10 9 6 4 4 5 2 2 3 3 3 5 5 3
3 2 3 5 4 6 10 14 18 20 21 18 11 10 15 17 15 13 9 6 5 7 7 6 12 17 16 15 11 10 12 11 10 11 10 11 12 12 11 7 5 10 13 11 7 3 3 6 8 10 6 6 4 8 12 12 8 8 13 16 18 21 23 23 24 23 16 15 20 13 7 17 19 11 11 11 9 6 2 3 4 5 5 5 4 6 6 4
4 3 3 3 5 6 7 10 15 18 19 17 13 12 14 16 17 13 10 11 8 7 11 12 13 17 18 16 12 13 18 19 19 19 18 18 17 13 12 10 9 12 13 12 8 2 2 5 9 10 7 4 2 6 11 12 11 10 12 16 19 22 24 24 21 15 11 16 25 19 14 18 15 7 8 7 6 4 2 4 8 7 6 5 5 7 7 5
6 5 4 3 5 7 7 8 13 15 15 15 14 12 12 16 19 14 8 13 16 14 16 16 14 13 16 18 19 19 18 14 15 18 19 19 16 9 6 8 13 17 14 10 8 4 1 3 7 9 7 2 2 6 9 8 6 6 11 18 24 23 20 19 18 16 16 20 23 18 15 16 8 6 8 6 4 5 8 10 10 7 6 6 7 9 8 6
8 8 7 5 6 8 8 8 12 14 12 14 16 16 14 17 21 18 10 10 18 19 15 12 10 9 13 20 23 19 12 7 7 11 12 10 7 4 3 7 14 16 13 10 6 4 4 6 6 8 7 3 2 6 9 7 4 6 12 18 22 20 17 16 17 20 22 20 15 12 15 13 2 7 8 9 8 10 11 9 8 9 9 8 8 10 9 8
Wind_Direction
229 228 227 226 223 222 224 224 222 223 223 224 226 223 220 220 219 214 208 207 208 206 205 204 203 200 193 191 192 195 199 197 194 192 200 202 195 191 186 185 182 172 170 169 150 137 142 144 135 112 63 46 1 336 322 331 28 233 213 206 217 187 137 23 11 356 329 358 19 263 221 229 199 168 174 180 205 156 154 179 142 160 207 229 32 75 162 159
224 225 226 225 224 221 220 224 221 218 220 221 227 224 218 216 217 212 206 207 206 204 203 201 201 197 190 189 186 184 188 187 190 202 209 204 196 193 187 185 184 175 172 177 175 149 132 142 138 116 62 35 336 332 304 341 353 43 139 213 203 71 64 29 10 13 341 332 344 321 240 250 249 165 173 212 200 174 201 194 180 200 194 182 119 155 164 163
220 222 224 222 224 221 218 221 219 216 214 215 225 225 216 212 212 208 203 204 204 201 199 198 197 192 188 185 181 180 178 174 196 212 209 203 195 193 190 187 186 182 179 178 181 163 139 147 146 129 75 50 6 316 323 11 342 63 254 216 114 41 61 65 16 21 5 317 321 318 227 240 253 155 175 222 214 192 221 211 187 210 199 173 145 159 168 169
218 219 221 220 222 221 217 218 216 215 212 209 220 226 219 213 213 209 203 203 204 202 197 196 193 188 185 181 179 176 160 168 213 208 204 200 192 189 188 183 183 185 183 181 185 168 141 138 140 132 106 91 336 312 354 10 344 104 296 156 93 13 167 69 14 15 9 299 313 314 275 246 224 178 209 214 224 221 231 222 209 218 193 165 154 166 172 174
218 219 220 219 221 221 219 217 215 216 215 213 217 225 223 215 214 212 204 201 202 202 197 194 191 186 182 179 179 167 150 191 202 196 199 194 186 185 186 186 186 183 182 184 179 160 143 134 125 104 100 127 190 268 77 24 39 113 67 75 90 35 29 36 355 22 3 288 287 289 286 303 120 199 221 216 234 244 252 234 226 226 180 160 161 169 174 178
217 218 218 218 218 219 219 218 217 216 217 217 216 224 226 217 213 211 208 203 200 201 197 193 190 186 183 180 179 168 168 198 162 188 195 186 179 179 180 183 182 178 179 177 165 157 148 144 151 149 136 141 171 185 170 104 58 149 129 113 119 55 0 3 346 1 24 293 283 297 319 322 246 242 223 222 241 263 38 350 273 233 164 156 158 166 176 183
214 215 216 216 215 215 218 220 218 214 215 218 217 221 224 220 215 211 210 205 201 199 195 193 191 187 184 179 179 181 197 212 134 185 188 178 175 175 175 177 177 179 180 173 164 165 158 164 178 167 152 154 166 166 171 155 87 175 162 165 149 117 317 341 330 307 210 263 291 327 304 268 251 265 193 229 243 227 48 0 354 168 149 151 158 169 181 186
209 211 212 212 213 212 216 220 217 213 212 212 214 216 216 218 216 214 211 204 199 198 194 192 190 186 180 175 175 195 212 201 143 181 179 172 171 170 172 173 176 175 172 169 165 169 165 172 178 172 175 174 161 155 172 180 161 220 180 140 150 233 301 325 299 290 73 251 280 280 262 259 255 290 293 248 244 211 107 54 117 152 149 158 169 175 184 189
205 208 207 207 209 210 215 219 216 212 208 205 207 210 214 217 215 217 215 206 199 196 193 190 189 183 178 174 176 202 205 187 167 175 172 167 166 169 169 167 170 167 164 166 166 174 179 178 171 175 181 156 152 147 169 210 207 231 169 9 301 307 307 319 302 316 32 276 179 249 264 259 241 310 266 252 249 177 133 120 137 154 162 173 176 179 186 190
202 204 203 202 203 205 212 217 214 210 206 203 201 202 209 215 214 217 217 213 204 194 190 189 186 179 175 173 183 207 195 187 189 173 171 166 160 164 163 162 166 165 160 161 169 179 183 177 154 139 129 120 154 129 139 203 158 79 50 334 297 302 302 306 299 306 356 263 199 248 278 287 131 251 250 251 36 116 162 153 158 171 177 183 181 183 188 192
198 199 197 197 198 201 208 215 213 209 206 201 197 196 200 207 211 216 217 218 208 194 189 188 182 177 174 175 192 202 176 183 186 171 174 169 161 163 161 160 165 164 158 154 172 185 186 161 139 123 141 144 150 121 9 166 111 90 60 310 279 282 286 269 274 289 325 267 195 236 276 266 144 229 243 70 69 186 183 168 176 192 190 185 184 183 189 195
189 188 187 190 193 196 205 213 210 209 206 199 195 194 194 199 207 217 220 219 207 195 189 186 180 177 172 181 204 179 166 179 178 170 174 171 167 166 162 161 164 164 161 154 171 187 182 164 147 127 161 152 142 136 164 146 106 96 108 286 283 291 282 271 273 289 280 276 160 212 272 241 194 221 233 81 108 169 176 184 187 203 200 188 187 184 191 196
180 178 178 181 185 189 199 206 205 206 204 199 200 196 192 197 205 216 221 223 207 191 186 184 178 175 171 183 199 166 169 176 173 171 172 171 171 170 169 167 163 164 163 156 162 172 168 165 149 106 126 145 138 129 116 102 61 116 109 278 290 285 272 271 47 112 202 185 122 218 269 247 205 216 202 108 153 161 176 201 194 205 204 194 193 192 196 195
173 171 173 177 180 185 193 200 201 201 201 202 205 201 194 197 204 209 213 229 207 188 183 180 173 172 176 164 162 169 174 173 170 172 171 168 166 164 168 169 165 167 164 155 153 156 156 149 129 103 75 120 128 136 111 87 177 140 117 214 247 251 243 75 70 244 238 147 131 215 259 260 233 212 169 136 174 183 204 208 192 199 202 203 202 201 203 200
168 167 171 175 176 181 189 195 197 199 200 198 199 200 198 202 206 206 206 232 215 186 177 175 170 165 177 175 161 170 171 168 169 172 172 167 160 151 156 161 160 162 160 152 147 146 144 134 120 113 89 95 138 144 116 96 119 130 177 211 210 222 244 344 327 259 288 142 150 199 250 271 269 254 122 145 181 196 223 214 192 198 199 206 207 207 213 206
166 166 168 169 172 177 181 188 195 198 198 191 188 195 201 208 208 212 216 230 237 187 169 167 169 162 168 176 158 162 163 166 171 173 173 170 163 150 144 147 142 145 147 141 138 133 125 118 105 109 118 149 161 143 119 147 155 136 217 211 188 205 222 317 313 83 341 326 183 215 250 296 274 251 83 186 190 190 226 225 202 203 204 210 213 212 216 207
163 164 163 163 169 174 174 179 191 196 199 191 182 192 202 212 209 214 223 232 252 196 170 166 167 162 162 143 148 161 163 164 169 169 172 175 167 150 139 134 122 125 123 123 133 124 93 86 104 139 131 166 170 150 156 195 189 140 231 225 206 207 196 215 177 68 15 280 223 235 250 268 268 258 168 168 190 193 219 231 219 212 210 212 220 219 219 214
159 157 154 155 160 167 172 172 177 187 197 192 184 189 197 205 202 203 215 230 261 201 176 168 162 161 191 157 158 169 163 159 164 165 167 171 165 152 142 130 123 121 113 112 125 100 44 44 156 155 152 177 177 180 185 180 174 165 196 217 207 202 217 231 212 9 351 293 261 256 254 263 269 267 251 168 179 209 221 231 227 221 216 207 218 222 219 219
153 151 147 146 148 152 166 171 169 173 184 190 188 178 174 181 184 192 207 215 252 207 180 168 165 163 190 172 164 158 156 155 157 160 158 158 157 149 138 131 131 131 134 146 158 155 132 106 161 172 174 187 185 192 186 151 167 183 199 217 214 201 203 221 236 299 339 307 270 260 261 263 264 266 261 187 164 224 233 238 233 223 222 212 217 222 218 221
148 146 144 139 141 140 150 167 172 166 169 180 179 162 154 158 170 200 202 202 233 239 337 267 183 155 114 161 144 137 148 151 150 156 158 155 147 136 129 132 131 146 160 160 161 165 164 161 189 191 180 182 179 187 187 165 184 188 194 217 222 221 206 181 230 237 329 295 271 258 267 266 262 267 267 207 154 232 236 235 236 222 220 217 217 222 221 223
142 142 142 137 139 139 141 158 170 168 169 172 165 156 158 165 176 194 181 206 244 247 302 285 224 311 128 152 142 136 138 149 153 156 157 155 144 137 147 149 145 176 175 148 139 133 197 195 199 190 170 169 177 184 177 166 181 179 185 207 210 225 227 201 219 202 159 257 265 269 278 273 266 268 270 234 185 235 234 230 235 226 221 218 218 223 224 225
138 138 138 139 140 139 137 149 165 171 171 171 168 189 240 176 189 174 164 207 248 239 278 256 259 307 137 142 143 138 118 139 154 154 158 158 156 158 171 164 161 174 159 128 126 149 198 208 199 179 164 165 173 170 159 154 166 181 182 203 221 207 221 230 209 173 168 225 265 285 286 279 275 272 273 262 235 243 237 229 235 229 223 222 220 222 219 221
137 137 136 139 141 141 138 143 160 169 167 164 165 247 100 162 175 156 154 199 271 216 283 240 247 211 146 139 146 145 132 151 155 160 170 168 167 168 164 168 167 159 157 156 162 172 194 209 189 166 157 160 157 156 160 144 153 187 176 196 226 176 190 234 191 170 209 228 277 291 287 282 277 270 269 262 243 242 237 230 236 231 230 231 224 220 215 218
137 139 137 136 140 144 142 141 151 167 170 149 142 161 142 143 147 144 140 104 286 226 284 244 247 193 166 156 158 156 149 161 160 163 176 175 162 160 165 170 163 157 173 175 173 179 167 155 160 157 159 160 153 160 165 144 162 207 201 207 211 176 205 238 166 269 264 226 231 273 280 273 261 254 257 254 229 232 230 226 236 231 231 239 235 230 223 221
138 141 140 138 141 145 147 140 142 163 170 151 150 169 159 147 144 134 114 64 256 286 272 228 236 197 177 163 168 162 133 155 170 160 174 179 156 149 165 171 164 169 179 178 178 188 153 140 153 160 166 163 157 167 173 165 173 203 226 226 218 197 209 219 119 319 266 233 168 215 267 262 247 243 244 238 225 231 218 212 230 228 221 224 230 234 227 223
137 138 140 140 139 143 147 139 146 163 161 150 179 177 156 154 153 137 109 31 247 242 178 186 203 183 178 173 169 150 133 161 164 152 167 174 160 152 159 160 164 176 175 176 183 195 152 159 163 163 166 165 160 170 178 175 181 204 198 206 218 209 207 199 172 206 249 260 58 189 258 270 289 262 238 230 239 240 218 210 226 227 216 211 219 229 224 221
134 134 136 139 141 143 141 136 150 158 156 153 176 176 162 152 150 142 123 295 234 160 158 202 223 174 175 174 162 151 152 144 104 159 174 173 168 167 161 158 149 171 164 159 184 185 153 167 170 164 162 166 174 178 179 180 191 201 168 181 202 204 208 204 184 216 256 310 292 226 241 279 283 270 230 224 251 252 237 223 224 226 222 216 219 225 223 222
132 136 136 138 146 142 126 136 148 148 143 151 161 171 171 153 145 139 140 227 195 104 152 204 253 172 174 171 168 163 142 135 135 173 182 173 174 185 166 166 156 156 160 166 184 166 150 167 172 163 160 177 189 179 169 177 188 169 151 177 196 193 200 198 181 222 298 319 264 205 148 258 268 254 149 196 243 250 244 231 223 227 226 221 223 226 224 226
129 135 140 141 146 143 128 133 143 142 133 138 156 165 155 144 138 129 193 210 142 76 149 170 186 183 175 172 177 164 136 140 138 150 158 162 166 353 161 161 148 147 155 168 159 136 151 175 170 162 169 185 180 162 166 181 187 108 127 138 144 152 146 141 181 182 116 261 254 192 161 233 271 256 202 200 236 244 248 241 224 224 225 219 223 227 224 226
131 132 139 140 144 155 148 138 142 136 137 148 157 151 137 132 138 162 191 192 112 114 150 159 176 181 173 171 175 159 149 146 113 119 121 110 68 17 81 103 127 139 123 58 92 107 91 111 161 163 178 160 133 129 160 179 151 121 126 115 109 116 92 120 199 106 214 248 249 168 166 208 273 263 217 215 219 220 237 247 237 231 230 223 222 226 225 223
136 137 142 142 145 157 150 164 181 147 133 153 150 139 131 131 225 192 181 209 92 141 169 169 176 181 176 171 163 158 150 134 141 140 138 132 101 103 115 84 63 107 109 96 81 68 99 120 158 155 136 120 113 108 114 142 138 131 138 133 120 114 129 164 156 184 231 244 236 172 175 201 243 255 219 216 194 200 229 237 236 232 226 221 219 224 225 223
128 141 150 151 151 154 141 155 186 184 160 152 145 130 130 183 233 210 175 96 143 168 176 172 184 193 181 173 164 162 151 136 155 152 150 157 150 155 158 161 153 130 147 152 136 137 136 141 136 105 239 151 133 128 97 130 163 154 150 146 130 122 159 199 191 206 237 232 175 213 179 211 242 252 244 235 209 220 238 240 239 231 224 221 213 219 221 210
111 134 149 163 158 156 143 125 170 191 182 160 151 128 162 204 224 205 181 166 136 151 153 164 184 189 176 173 171 164 152 150 162 154 151 158 158 163 164 165 163 151 154 156 145 147 137 44 149 145 200 187 162 155 152 166 181 172 160 156 154 145 165 213 203 217 254 221 184 128 125 247 264 260 246 249 242 230 229 243 258 257 254 254 238 249 265 233
98 128 142 166 167 165 160 138 149 173 163 163 169 151 181 215 214 169 182 207 114 117 109 157 172 185 178 174 171 163 153 159 161 148 145 153 160 167 148 163 177 149 114 145 150 160 148 150 190 171 162 183 181 165 144 137 151 179 173 159 171 165 180 212 199 211 230 142 166 159 164 247 261 43 264 264 264 251 239 252 269 279 276 278 296 290 275 260
89 115 133 161 173 176 175 168 157 159 154 154 183 172 191 206 191 170 173 152 134 139 127 156 164 176 182 178 180 175 161 163 160 147 149 158 164 170 158 175 188 165 137 155 166 171 161 130 167 157 143 171 171 156 140 138 154 197 152 138 211 186 166 187 185 211 175 73 189 189 231 258 284 320 292 268 254 246 251 259 257 261 257 257 267 261 250 252
73 86 130 168 182 179 178 179 166 158 154 142 178 210 218 207 203 232 161 145 156 150 139 157 172 173 173 183 199 187 9 141 160 152 163 168 165 177 170 173 180 171 162 155 136 170 173 127 136 123 150 173 168 158 161 159 156 161 176 191 189 59 72 153 146 75 91 256 225 191 247 279 307 292 270 245 242 225 219 240 240 247 247 249 263 259 246 247
63 57 170 200 203 182 174 176 166 158 155 138 182 213 230 229 214 284 200 140 144 151 150 163 183 177 167 169 209 184 137 136 162 154 159 169 168 175 172 169 179 179 171 148 113 175 153 112 81 110 156 171 28 142 167 184 121 140 188 178 127 31 339 237 232 154 188 245 247 203 242 266 271 272 253 224 239 237 228 232 229 244 248 241 247 249 246 239
62 25 310 243 217 188 173 171 160 150 136 146 199 218 201 196 188 180 286 177 138 156 171 173 169 158 174 171 190 182 158 152 170 159 152 169 177 173 172 172 184 186 174 143 128 153 134 111 83 275 160 152 17 140 166 251 298 147 176 155 143 230 207 186 219 217 207 238 259 225 238 255 232 232 238 205 227 242 246 243 243 256 246 233 249 259 259 242
87 50 318 244 208 184 171 165 153 140 141 164 199 219 191 180 184 171 274 261 161 170 198 209 168 126 185 173 163 182 173 165 169 162 164 181 179 177 180 172 173 182 178 144 149 153 134 122 147 237 172 144 157 181 180 190 198 5 156 162 170 271 202 187 194 207 218 233 255 247 231 248 221 212 226 226 226 239 245 244 243 250 249 241 266 276 274 259
122 109 326 201 179 173 165 156 143 147 167 181 195 207 192 183 180 169 187 238 195 189 206 218 164 136 176 174 164 187 182 168 170 170 176 176 149 170 183 172 160 168 158 97 144 148 123 113 140 140 163 168 180 203 196 184 173 167 174 177 184 183 179 246 205 203 231 228 244 255 253 250 199 177 216 223 228 233 238 245 239 247 304 279 252 257 265 263
150 148 295 171 167 164 157 148 151 164 174 200 201 210 212 173 163 168 180 197 222 313 263 217 199 168 170 167 178 194 181 167 175 178 174 173 158 172 184 171 155 156 147 134 154 161 129 118 134 145 176 188 188 306 213 192 186 182 180 183 189 183 167 196 207 192 205 234 229 254 271 257 170 158 214 217 225 228 224 250 253 248 264 253 245 238 247 262
175 158 163 170 166 160 154 155 173 172 189 200 194 205 204 175 165 165 169 186 208 347 359 258 216 191 196 183 177 183 174 169 181 182 182 185 184 178 169 158 148 152 152 133 132 130 80 106 123 145 167 177 120 15 9 247 203 199 210 203 195 192 189 204 217 177 174 223 196 341 283 263 152 155 209 215 223 211 164 209 249 246 234 247 275 274 264 268
194 176 166 171 168 162 158 172 173 185 210 192 194 211 203 187 176 157 158 180 187 149 311 257 198 187 220 200 175 180 176 176 183 180 177 181 181 175 160 152 146 155 157 127 129 145 123 111 112 124 136 92 47 48 31 14 220 211 227 217 198 207 206 200 297 174 180 206 192 217 264 256 157 159 202 223 249 264 222 224 251 265 266 270 277 282 285 279
189 201 191 175 171 167 171 181 174 193 204 186 194 212 216 221 193 165 161 176 179 159 184 242 206 193 211 188 185 188 177 171 183 175 118 160 166 210 164 154 152 163 171 146 156 174 156 141 136 132 139 147 138 172 202 206 209 210 211 198 204 221 204 121 7 238 216 212 196 211 254 253 175 144 189 184 230 254 246 224 241 255 276 291 271 270 277 278
194 205 225 182 176 175 192 196 179 189 194 185 189 196 198 220 213 183 170 178 190 178 173 240 239 204 190 183 191 192 180 176 183 175 129 121 57 252 164 159 162 169 150 104 137 148 145 153 154 145 152 176 182 186 193 179 182 195 176 182 204 211 196 189 209 211 224 215 192 203 242 243 110 117 200 194 217 251 239 195 218 235 251 272 273 281 286 282
202 195 170 175 185 192 209 207 194 196 191 184 189 193 191 203 218 188 177 182 196 190 196 242 256 222 192 184 184 185 188 356 120 157 148 137 122 271 170 164 167 165 124 114 129 125 119 153 182 173 173 187 182 154 116 120 143 185 194 195 200 200 200 204 211 216 220 211 200 221 241 254 168 161 197 219 222 252 269 209 229 225 239 257 265 289 291 271
223 213 176 166 186 211 211 209 208 208 194 186 185 184 192 202 198 178 187 190 176 172 210 232 213 219 204 181 176 178 168 81 110 135 131 134 115 89 165 166 165 157 138 135 146 132 112 172 198 188 182 175 130 130 136 146 169 191 193 194 194 194 200 204 218 225 215 184 234 232 231 250 249 197 179 232 237 220 194 224 250 252 257 284 293 290 286 272
221 230 190 175 177 202 202 200 202 203 197 193 191 181 192 199 189 174 183 174 152 157 181 219 204 209 207 186 175 165 153 134 135 140 124 123 124 125 152 164 167 158 147 151 170 158 151 192 195 179 149 39 79 139 159 166 176 181 181 187 187 188 195 202 219 229 213 201 241 234 198 235 247 219 198 219 230 217 184 183 212 276 270 268 273 276 276 271
221 254 220 198 203 206 201 195 195 199 197 193 195 192 193 198 194 181 164 141 148 173 181 215 210 203 206 201 184 167 165 161 160 165 160 151 148 148 151 156 190 177 162 163 175 184 187 183 169 155 122 43 69 149 163 167 166 172 185 190 189 192 199 205 217 225 215 225 251 260 236 245 252 237 218 222 224 226 180 163 213 238 244 243 249 268 276 277
208 246 226 219 237 230 224 208 196 199 198 193 198 199 193 197 197 183 165 164 163 169 188 212 217 200 198 203 198 194 191 182 176 175 168 158 159 166 168 168 177 177 173 170 169 196 233 158 145 144 125 55 53 150 162 170 173 182 193 197 198 201 206 212 220 219 211 235 249 252 255 261 258 221 204 215 222 240 287 266 250 242 239 246 258 267 271 275
226 269 276 275 253 222 223 226 205 201 201 196 201 197 189 198 195 180 174 183 180 183 192 203 211 201 194 199 206 208 202 187 176 172 167 164 164 167 175 172 168 167 169 172 163 149 122 133 140 147 142 117 132 150 158 159 159 192 213 208 204 204 207 214 219 210 202 221 237 239 245 256 247 157 171 185 186 227 245 251 260 261 241 232 241 250 250 245
223 256 258 263 261 225 214 223 213 207 200 193 199 196 191 197 191 180 182 197 198 199 189 182 199 206 197 202 209 208 192 159 149 155 155 148 126 88 87 146 163 166 160 155 149 132 130 135 148 156 148 139 158 150 143 128 129 230 231 209 197 200 207 213 221 218 212 218 228 226 231 240 170 118 180 191 189 219 233 235 249 262 257 244 238 241 240 229
Height
746 748 750 752 754 755 757 759 761 763 764 765 768 771 773 775 777 781 785 787 789 792 795 797 799 802 804 807 809 811 813 814 816 817 815 814 814 816 817 819 821 822 823 825 826 827 827 828 828 829 832 836 841 840 839 839 837 839 841 846 849 846 849 850 849 849 848 846 846 849 848 845 845 846 846 845 845 845 848 848 848 849 849 849 850 851 852 854
742 745 747 749 751 752 754 756 758 760 762 763 765 768 771 773 775 779 783 786 788 790 793 796 799 801 803 807 809 811 813 815 815 815 813 813 814 816 817 818 820 821 823 825 826 826 826 828 828 829 835 840 844 841 839 840 839 843 845 845 848 848 850 852 850 850 850 850 849 848 849 848 845 844 845 845 845 846 847 847 848 848 848 849 850 851 852 854
738 741 743 746 748 749 751 753 756 758 759 761 763 766 769 771 773 775 779 783 785 788 791 794 797 800 803 806 808 811 813 815 815 812 811 812 814 815 816 817 819 821 822 823 825 826 826 827 828 831 838 843 845 843 840 841 842 847 847 845 849 852 851 851 851 851 851 852 849 847 849 850 845 844 845 844 844 846 844 842 845 846 845 847 849 850 852 853
734 737 739 742 745 747 748 750 752 754 755 758 761 764 766 768 771 773 776 780 783 786 788 792 795 798 802 804 808 810 813 817 812 807 809 810 812 814 815 816 818 820 821 823 825 826 826 828 830 832 839 846 848 845 844 845 844 847 847 846 851 852 850 851 851 851 852 852 850 848 850 849 845 845 845 843 844 843 838 834 837 839 839 844 848 849 851 852
730 732 735 739 741 744 745 746 748 751 753 755 758 761 764 766 769 772 774 777 780 784 786 790 793 797 800 803 808 808 814 820 806 801 807 808 811 813 814 816 817 819 821 823 824 825 826 828 831 833 839 847 849 847 848 847 845 848 851 850 851 851 850 849 850 851 852 852 850 850 849 846 845 845 843 843 842 837 833 831 831 832 834 840 844 848 850 851
725 728 732 735 738 740 742 744 745 748 750 753 755 759 763 764 766 770 773 775 778 782 785 788 791 796 799 801 806 807 810 811 798 797 804 806 810 811 813 815 816 819 821 822 824 824 825 827 830 834 838 844 848 847 849 849 845 849 854 853 852 852 850 848 848 851 852 851 849 849 848 846 846 844 841 842 838 832 832 832 832 831 833 837 842 846 848 849
721 725 727 731 734 736 739 742 742 744 748 750 753 757 761 763 765 768 771 773 775 779 783 787 790 794 798 801 805 806 803 799 795 796 800 804 808 810 812 814 815 818 819 821 823 822 824 826 829 832 835 842 847 848 850 849 846 848 852 853 852 852 850 848 849 849 851 851 848 849 849 847 844 843 843 841 834 832 834 834 834 834 834 837 840 844 845 847
718 721 724 727 731 733 737 740 741 742 745 748 752 756 760 762 764 766 768 771 773 777 781 786 790 791 796 800 803 805 801 795 795 797 800 803 806 809 811 813 814 817 818 820 822 822 824 825 827 830 834 839 841 845 850 848 847 848 849 851 851 851 848 847 848 847 849 849 849 851 848 845 843 844 844 838 831 831 834 835 836 835 836 838 839 842 844 845
714 717 721 724 727 730 734 738 739 741 743 747 750 754 758 760 762 763 766 769 771 774 778 783 788 790 793 796 800 802 795 792 795 797 800 803 805 808 810 812 813 815 817 820 821 823 825 825 826 828 831 838 840 843 848 848 848 848 848 849 850 850 847 846 846 845 847 848 849 850 845 843 844 846 840 831 830 831 833 835 836 836 837 837 838 840 842 843
711 715 718 721 724 727 731 736 738 739 742 745 748 752 756 758 760 762 764 767 770 772 775 780 785 789 792 794 798 797 789 791 796 797 800 802 804 808 809 811 812 814 816 819 820 821 823 824 825 826 830 838 841 845 848 847 849 850 850 850 849 849 847 847 846 844 846 846 848 847 843 843 845 847 837 828 832 834 833 836 836 836 836 836 838 839 841 842
709 712 716 718 721 724 728 733 736 737 740 743 747 749 753 756 759 761 762 765 768 771 775 778 782 786 788 790 793 790 786 791 795 796 800 802 803 806 807 809 811 812 815 817 820 821 821 823 823 826 831 837 842 848 851 848 850 852 852 852 850 849 848 846 845 845 845 844 846 846 844 844 847 846 834 828 835 835 833 836 837 836 835 836 837 838 840 841
707 710 713 716 719 721 726 732 734 735 738 741 744 746 749 753 756 759 761 764 766 769 773 776 780 784 787 789 788 785 786 790 792 796 799 802 804 806 807 809 810 812 813 816 819 820 822 823 823 827 832 835 842 850 850 849 851 851 852 855 854 849 847 844 843 846 846 845 845 847 846 842 843 839 829 830 835 834 834 836 837 836 835 836 836 837 838 839
704 708 711 714 717 720 724 730 732 733 736 739 742 744 746 749 753 757 759 762 764 765 769 772 777 783 786 787 785 784 787 788 791 795 798 801 804 807 808 810 811 813 814 815 818 820 822 824 824 828 832 835 843 847 846 850 853 851 853 857 858 856 850 844 845 848 846 845 845 849 849 835 830 830 827 832 835 833 835 834 836 836 835 836 836 837 837 838
703 706 709 712 715 718 722 727 730 732 734 737 740 742 743 745 750 755 758 760 761 760 764 769 774 781 785 783 783 785 786 788 791 793 796 799 802 806 808 810 812 814 814 816 818 820 822 824 825 830 835 836 841 844 846 852 854 853 857 857 859 862 854 845 846 847 843 845 845 849 850 834 824 825 826 831 833 832 832 831 833 835 836 836 835 836 835 835
703 705 708 711 713 717 720 724 727 730 732 735 738 740 740 742 746 752 757 759 760 757 760 767 771 777 784 783 781 784 786 789 790 792 795 797 799 804 807 809 812 813 815 817 818 821 823 824 826 832 839 839 839 843 848 853 854 855 860 860 861 862 858 850 847 847 845 845 845 847 848 835 824 823 827 832 833 832 829 827 830 833 835 835 834 835 834 834
703 705 707 710 712 716 719 722 725 727 730 732 735 738 740 741 744 751 755 757 761 760 757 763 767 771 781 781 778 782 785 786 788 791 795 796 796 800 805 809 812 814 816 818 819 822 823 825 830 834 839 841 838 841 849 854 856 858 859 860 860 860 862 859 849 848 848 846 845 844 843 837 827 824 830 834 832 832 829 826 828 831 834 834 833 833 833 833
703 705 707 709 712 714 717 721 724 726 728 730 733 737 739 741 744 749 753 756 761 762 755 755 759 767 775 775 774 778 781 783 787 790 794 797 796 798 803 807 812 815 816 820 822 823 824 829 835 836 836 838 836 838 851 859 861 864 862 858 858 858 862 862 851 848 848 846 845 843 842 839 829 824 828 832 832 831 829 826 826 829 832 833 833 832 831 832
702 704 707 709 710 713 717 720 723 725 727 730 733 736 739 742 745 748 752 754 758 759 755 752 757 765 769 767 767 769 772 779 784 789 792 796 798 799 801 806 810 814 818 823 824 826 829 834 837 838 839 839 835 836 847 855 857 862 862 857 859 861 864 864 857 851 848 846 845 843 841 837 830 824 823 827 831 829 826 824 824 825 828 830 831 831 830 830
700 703 706 708 710 713 716 719 722 724 726 730 733 736 740 743 746 748 750 753 756 754 751 749 748 750 750 752 757 763 769 775 781 789 792 794 798 800 802 806 809 812 819 825 829 829 830 837 841 840 841 838 833 833 837 841 844 849 852 851 855 859 862 864 859 853 852 850 845 841 838 833 830 825 819 823 830 828 825 824 824 824 825 827 828 828 827 827
699 702 705 707 710 712 715 718 721 723 725 728 732 734 737 742 748 750 750 752 751 747 748 747 741 739 742 747 754 763 771 776 781 787 791 792 795 799 805 807 812 816 817 821 828 828 828 837 840 835 835 834 831 831 831 834 838 842 848 851 853 854 856 858 857 854 855 853 843 837 836 832 828 823 817 821 828 828 826 824 823 822 822 823 824 824 823 823
699 701 704 706 709 711 715 717 720 722 724 726 731 732 731 736 742 744 747 752 749 747 752 753 748 745 744 747 750 754 765 775 780 783 788 792 793 799 806 807 813 820 817 817 824 828 829 832 831 827 828 830 829 830 832 836 840 843 848 851 854 854 852 851 852 852 855 856 844 836 836 831 826 822 816 818 824 823 820 819 819 818 818 819 819 819 819 819
699 701 703 705 708 711 714 717 719 721 723 726 730 731 729 730 732 734 742 752 750 750 754 755 753 750 747 749 750 752 761 773 781 784 786 788 790 796 802 804 810 816 817 820 825 831 832 826 821 821 823 826 830 832 836 840 843 845 848 851 852 852 851 848 848 850 854 853 845 839 840 831 823 820 815 814 817 815 812 812 812 813 815 816 815 815 816 817
699 700 703 705 708 711 714 717 719 721 723 726 728 731 730 730 732 735 743 752 752 751 753 755 755 752 751 752 751 753 762 770 777 782 783 784 787 790 796 802 806 812 817 819 822 829 830 821 816 818 821 827 834 838 839 844 847 847 847 850 850 850 852 848 847 850 849 848 846 844 842 832 821 818 812 808 809 809 808 809 808 810 811 810 811 812 813 814
698 700 703 706 709 711 714 716 719 721 723 725 728 731 731 731 734 736 743 754 759 756 752 754 755 750 748 748 746 749 756 762 767 773 778 779 782 787 791 796 802 811 815 813 816 822 824 818 814 818 821 827 836 840 841 847 853 851 847 845 846 849 850 845 846 848 843 845 847 846 844 830 817 816 810 802 805 806 806 808 809 809 809 808 809 809 809 809
699 701 703 706 709 711 714 716 719 721 722 726 728 731 732 731 733 735 743 758 763 758 753 752 752 748 746 746 746 745 750 759 761 764 770 773 775 782 789 791 797 807 810 809 813 819 821 816 814 820 823 826 833 838 839 842 849 853 849 843 841 845 847 846 849 848 846 847 843 845 847 827 808 809 807 800 802 804 804 807 806 804 805 807 808 806 805 805
699 702 703 706 709 711 713 715 718 720 722 725 727 730 731 731 733 734 745 763 761 754 755 751 745 744 744 745 746 747 754 763 765 763 768 772 771 774 785 792 796 800 802 806 812 816 820 817 814 820 825 828 834 837 835 833 842 851 846 842 841 841 845 848 850 850 850 848 841 844 849 833 815 809 804 800 801 799 800 804 802 799 800 801 803 801 800 801
699 702 704 706 708 711 713 715 718 719 721 724 725 729 730 731 735 734 747 766 754 744 753 750 741 739 740 742 742 744 751 759 767 770 768 771 771 771 782 792 795 796 796 803 814 815 817 819 818 820 824 830 834 835 833 829 839 844 837 839 843 843 847 848 849 851 849 847 843 843 849 847 831 813 803 802 803 799 796 798 797 796 796 795 796 796 795 795
699 702 703 706 708 710 712 713 716 718 720 721 722 727 730 732 736 737 749 756 743 738 745 744 741 739 739 741 740 739 740 744 758 770 768 769 773 772 778 784 786 792 793 797 810 813 812 817 819 820 825 830 827 827 828 828 835 839 835 837 841 843 847 847 851 854 852 854 849 841 847 852 832 810 805 805 802 798 791 790 792 791 791 791 791 791 790 790
700 702 703 706 708 710 712 713 715 718 718 720 722 726 729 733 738 744 748 740 732 737 738 738 741 739 739 742 741 741 741 741 749 762 768 770 771 771 774 776 777 789 795 794 804 812 812 812 811 815 822 821 819 822 826 828 832 836 837 839 842 846 849 852 854 854 858 859 850 840 843 848 829 804 804 808 802 796 788 784 785 784 785 786 786 786 786 786
700 702 703 706 708 710 713 714 715 717 718 720 723 725 729 736 741 743 741 730 729 737 736 737 739 735 736 739 741 743 743 745 750 760 771 771 770 772 771 774 778 789 800 801 807 814 812 811 810 813 817 814 816 823 826 829 832 835 840 842 847 852 852 855 853 852 860 857 848 842 838 845 836 803 793 798 793 788 786 783 781 780 781 781 781 782 781 782
699 702 703 706 708 710 713 716 716 717 719 720 722 726 731 739 742 733 729 725 728 737 738 737 736 731 731 733 738 741 741 748 751 755 768 772 773 774 773 781 789 797 807 809 815 820 816 816 816 816 817 814 819 828 832 834 833 834 838 840 848 856 857 857 856 858 862 854 850 848 839 844 838 804 786 785 780 780 782 779 777 776 776 776 776 777 777 778
699 701 703 706 708 710 713 716 716 716 721 721 722 727 732 740 738 723 723 725 723 733 737 733 734 730 728 730 733 735 738 746 749 750 759 766 770 770 768 776 785 796 805 806 814 823 820 818 818 819 819 813 817 830 838 840 836 834 834 836 848 860 864 863 861 862 858 850 850 848 845 840 819 793 784 780 778 780 778 774 772 771 770 769 770 772 773 775
700 701 703 706 707 710 713 714 716 717 721 722 723 728 734 739 728 714 722 728 720 726 730 727 730 728 726 731 734 732 734 738 742 745 752 757 765 767 765 768 769 774 787 797 809 819 822 823 821 821 821 813 810 821 834 839 838 834 830 832 843 857 868 866 860 860 855 848 846 845 847 835 804 786 781 776 775 775 773 774 772 771 771 768 769 772 774 776
700 701 702 705 706 710 712 714 716 717 720 724 724 729 735 732 718 709 720 728 723 725 727 725 729 727 725 730 731 729 732 738 739 742 750 757 764 767 769 772 767 764 778 797 806 808 813 819 816 815 816 811 808 812 819 828 834 832 825 826 834 839 847 849 846 848 847 845 848 850 843 819 794 786 780 775 776 773 772 775 775 776 775 773 773 775 776 776
700 701 702 705 707 709 711 713 716 718 721 724 726 730 728 719 712 711 716 724 727 727 727 726 728 730 732 733 730 722 725 735 736 741 751 755 758 760 761 766 764 761 772 789 799 798 801 808 807 808 809 807 809 810 811 821 833 834 827 830 834 826 826 835 840 839 839 841 845 844 828 799 783 780 773 773 776 774 774 773 774 775 773 773 775 773 773 773
701 702 702 704 706 708 711 713 716 719 720 723 729 731 724 715 715 714 711 717 722 724 727 730 730 733 734 736 734 725 724 730 730 738 749 750 750 752 751 754 754 754 757 766 782 788 794 807 811 810 811 808 807 809 807 813 824 831 833 832 830 823 821 833 843 843 844 840 829 824 816 796 787 780 767 767 769 769 772 772 770 770 767 769 772 769 769 770
701 703 703 704 706 708 711 712 716 719 720 724 730 727 720 719 722 719 712 712 716 719 721 724 729 732 730 733 737 730 728 732 729 734 745 747 746 746 748 750 749 748 746 750 768 776 783 809 820 813 815 814 810 811 810 809 814 825 832 825 822 828 827 828 837 843 847 840 821 815 813 803 799 790 771 767 769 766 767 767 767 767 766 767 766 763 764 766
701 703 703 703 704 708 711 713 716 718 722 727 729 723 717 719 723 720 716 713 715 720 719 716 724 731 727 726 735 734 727 730 732 734 741 746 742 739 742 745 745 747 743 743 761 768 773 805 826 818 816 819 815 815 819 818 816 818 819 814 818 831 831 829 835 838 840 838 822 813 813 805 796 787 774 770 771 766 763 762 764 765 763 763 761 759 761 764
702 703 703 700 702 707 711 714 716 719 725 729 728 723 717 718 722 720 717 716 716 721 720 714 720 732 730 723 730 733 723 722 730 731 734 738 735 732 733 736 741 747 746 744 754 761 765 792 821 823 817 820 819 817 820 822 821 819 817 814 817 822 822 823 827 827 828 831 822 814 813 798 780 774 771 769 767 764 762 761 761 759 758 761 762 760 761 763
701 704 703 699 700 706 709 713 717 721 726 724 720 719 715 715 719 719 718 719 718 718 717 715 718 726 731 729 730 729 718 719 724 721 721 725 728 730 728 730 739 745 749 751 753 759 766 781 809 824 822 821 818 811 808 809 815 819 818 819 820 820 821 822 820 818 820 822 819 817 809 784 767 766 765 762 760 758 757 758 757 758 759 761 761 761 762 762
702 705 704 699 701 704 707 713 718 720 722 720 715 715 715 714 716 717 718 720 721 719 715 715 716 719 723 726 728 724 718 720 722 717 717 721 725 729 725 723 733 741 748 754 753 758 766 776 799 820 823 818 811 806 804 803 805 809 809 811 812 812 818 823 820 816 817 816 813 816 807 777 760 764 762 757 756 754 756 759 758 761 762 759 758 761 763 762
703 706 703 700 701 703 706 712 714 714 717 715 711 710 710 711 712 714 716 718 721 724 722 717 715 717 717 716 719 719 716 718 719 715 716 716 717 721 718 720 730 737 742 749 755 759 765 775 795 812 815 812 811 812 813 809 803 805 807 805 804 806 809 813 814 813 817 817 812 818 814 777 752 757 758 754 755 756 760 762 759 758 759 758 758 760 761 762
704 706 702 700 701 701 705 710 712 713 713 709 706 705 705 706 708 710 713 716 720 726 728 720 713 716 715 711 716 716 713 715 716 713 715 715 717 720 719 720 729 736 739 744 753 759 764 775 794 810 813 810 810 813 815 814 810 809 807 803 803 803 800 805 811 808 811 813 810 819 816 778 750 753 756 757 761 762 763 764 761 757 756 758 761 760 761 762
702 703 701 700 700 700 703 705 707 711 709 706 707 707 705 704 704 706 710 713 717 723 727 719 710 710 709 708 711 710 709 713 716 717 718 717 721 723 719 720 727 733 734 735 738 747 757 769 785 805 818 818 815 816 814 814 812 805 801 803 804 801 802 812 814 810 810 806 804 814 804 769 751 755 758 761 764 762 762 765 765 760 757 759 761 761 762 762
701 701 700 700 699 698 696 693 694 700 701 703 706 705 705 705 703 702 705 708 711 715 721 718 709 706 707 706 708 707 707 710 714 718 719 721 727 726 720 722 727 729 730 730 731 738 751 761 769 785 801 803 801 798 792 794 801 802 801 803 804 803 806 809 809 812 811 799 796 800 783 757 752 756 755 757 758 756 757 760 762 761 759 758 758 759 760 760
700 698 697 700 701 698 692 686 688 693 695 699 703 701 703 705 701 698 700 705 708 711 715 715 710 708 707 706 708 709 710 711 713 716 716 720 730 730 722 722 726 729 732 733 735 741 751 760 760 763 770 769 769 772 770 776 793 801 800 799 800 801 802 803 806 806 796 789 791 784 766 758 758 756 755 753 752 754 756 756 757 757 756 756 756 757 758 758
695 690 688 693 698 698 694 690 689 690 691 693 694 695 698 699 698 699 700 700 704 710 714 713 713 713 710 707 709 712 713 713 713 716 719 722 728 731 727 724 726 731 732 734 736 740 751 761 757 754 759 758 759 767 768 770 779 786 789 793 796 799 801 805 804 789 780 789 789 770 763 767 759 752 755 753 750 754 757 755 753 753 754 756 756 757 756 754
690 683 679 681 685 688 690 689 685 685 687 688 685 686 691 693 693 697 701 701 703 709 715 714 711 711 708 703 703 709 715 716 717 720 723 726 729 732 733 733 732 732 732 735 737 735 744 754 752 755 767 768 765 768 768 768 773 777 783 788 791 795 799 801 794 779 778 788 775 756 763 766 752 748 752 749 748 752 753 754 755 755 755 755 756 755 751 749
686 683 678 677 677 676 676 677 677 679 680 682 682 681 684 689 688 688 694 702 706 710 715 714 708 707 705 699 698 704 707 707 713 718 717 720 726 727 730 735 735 733 732 734 738 737 739 747 751 757 770 775 773 770 767 769 775 778 781 784 785 788 788 786 780 773 777 780 765 756 765 760 743 743 747 744 744 747 750 755 756 755 753 752 754 753 748 747
682 681 678 678 678 675 674 673 674 677 677 676 677 675 676 682 684 682 686 693 701 709 712 709 704 701 701 698 696 697 690 683 691 700 702 708 716 717 717 719 721 727 729 729 736 740 740 747 753 756 766 779 779 772 769 770 774 777 779 780 780 781 780 777 775 775 782 780 764 760 768 758 737 735 743 744 745 747 751 754 752 750 751 752 753 752 748 746
679 678 678 681 678 675 677 676 672 673 673 671 671 670 671 674 676 679 683 683 686 693 698 699 699 697 697 696 692 687 683 679 682 687 690 695 699 701 703 705 708 716 724 727 732 736 740 751 755 754 765 779 779 775 775 772 774 780 779 774 771 771 773 772 769 771 774 768 761 766 770 754 733 732 742 747 749 752 752 750 747 746 746 748 750 748 747 746
679 679 680 684 678 670 671 674 671 668 663 661 663 664 664 665 667 674 681 681 677 679 684 692 697 696 695 692 684 678 680 684 685 687 691 694 697 700 701 702 704 708 715 724 730 733 739 749 753 753 763 778 782 778 775 777 783 780 762 752 758 763 765 768 764 761 759 757 759 763 753 736 731 737 743 746 748 749 747 746 746 743 740 742 743 743 743 742